[[{"header":{"parameterUnit":"m.s-1","parameterCategory":1,"la1":30.2992,"la2":30.254,"lo1":-89.0895,"lo2":-89.0443,"dy":0.0025,"dx":0.0025,"nx":19,"ny":19,"refTime":"2026-05-09T03:00:00:Z","depth":0,"parameterNumber":2,"parameterNumberName":"U-component_of_WINDS"},"data":[0,0,0,-1.0175,-1.0175,-1.0179,-1.0179,-1.0196,-1.0196,0,0,0,0,0,0,0,0,0,0,0,-1.0178,-1.0179,-1.0174,-1.0175,-1.0179,-1.0179,-1.0196,-1.0196,0,0,0,0,0,0,0,0,0,0,0,-1.0178,-1.0179,-1.0179,-1.0175,-1.0179,-1.0179,-1.0196,-1.0189,0,0,0,0,0,0,0,0,0,0,-1.0183,-1.0191,-1.0178,-1.0179,-1.0175,-1.0179,-1.0179,-1.0188,-1.0189,-1.0198,0,-1.0206,0,-1.0201,-1.0198,-1.0198,0,0,0,-1.0171,-1.019,-1.0186,-1.0179,-1.0175,-1.0179,-1.0176,-1.0189,-1.019,-1.0199,-1.0206,-1.0206,-1.0201,-1.0198,-1.0198,-1.0258,-1.0259,0,0,-1.0171,-1.0182,-1.0186,-1.0187,-1.0186,-1.0176,-1.0176,-1.0189,-1.0198,-1.0206,-1.0207,-1.0202,-1.0198,-1.0198,-1.0258,-1.0258,0,0,0,-1.0173,-1.0182,-1.0178,-1.0187,-1.0187,-1.0176,-1.0177,-1.0197,-1.0195,-1.0207,-1.0202,-1.0198,-1.0198,-1.0257,-1.0258,-1.0291,0,0,0,-1.0172,-1.0183,-1.0178,-1.0185,-1.0187,-1.0192,-1.0185,-1.0194,-1.0195,-1.0202,-1.0198,-1.0199,-1.0257,-1.0258,-1.0289,-1.0306,0,0,0,-1.0176,-1.0183,-1.0186,-1.0186,-1.0188,-1.0191,-1.019,-1.0194,-1.0192,-1.0198,-1.0199,-1.0256,-1.0257,-1.0288,-1.0303,-1.0325,0,0,0,-1.0184,-1.0215,-1.0187,-1.022,-1.0188,-1.0212,-1.0189,-1.0207,-1.0215,-1.0198,-1.0257,-1.0258,-1.0287,-1.0301,-1.0324,-1.0347,-1.0358,0,0,-1.023,-1.0221,-1.024,-1.0214,-1.0246,-1.021,-1.0247,-1.0244,-1.0235,-1.0251,-1.0253,-1.029,-1.0302,-1.0325,-1.0412,-1.0421,0,0,0,-1.0258,-1.0272,-1.0278,-1.0286,-1.0285,-1.0285,-1.0276,-1.0275,-1.0288,-1.0245,-1.0304,-1.0311,-1.0324,-1.0334,-1.0342,-1.0353,-1.0263,-1.0263,-1.0263,-1.034,-1.0326,-1.0356,-1.0343,-1.0352,-1.0342,-1.0348,-1.0345,-1.0329,-1.0343,-1.0348,-1.0402,-1.0415,-1.0421,-1.0432,-1.0358,-1.0359,-1.0359,-1.0359,-1.0406,-1.0424,-1.0401,-1.0423,-1.0408,-1.0427,-1.0419,-1.0407,-1.0423,-1.0397,-1.0408,-1.0382,-1.0431,-1.044,-1.0361,-1.0361,-1.036,-1.036,-1.036,-1.0459,-1.0465,-1.0463,-1.0475,-1.0485,-1.0471,-1.0487,-1.0473,-1.046,-1.0471,-1.0476,-1.0475,-1.0474,-1.0474,-1.0474,-1.0474,-1.0474,-1.0475,-1.0475,-1.0515,-1.0511,-1.0526,-1.0528,-1.0532,-1.0536,-1.0527,-1.0531,-1.0532,-1.0521,-1.0521,-1.0504,-1.0437,-1.0422,-1.0478,-1.0477,-1.0477,-1.0476,-1.0476,-1.0589,-1.057,-1.0593,-1.0598,-1.0599,-1.0611,-1.0593,-1.0603,-1.0604,-1.0613,-1.0593,-1.0546,-1.0537,-1.0531,-1.0518,-1.0595,-1.0595,-1.0595,-1.0595,-1.0635,-1.0628,-1.0649,-1.0657,-1.0663,-1.0649,-1.0677,-1.0671,-1.0662,-1.0662,-1.0649,-1.063,-1.0625,-1.0618,-1.0611,-1.0598,-1.0695,-1.0695,-1.0695,-1.068,-1.0674,-1.07,-1.069,-1.069,-1.0691,-1.0718,-1.0729,-1.0714,-1.0699,-1.0663,-1.0659,-1.0628,-1.0618,-1.0603,-1.0591,-1.0568,0,0]},{"header":{"parameterUnit":"m.s-1","parameterCategory":1,"la1":30.2992,"la2":30.254,"lo1":-89.0895,"lo2":-89.0443,"dy":0.0025,"dx":0.0025,"nx":19,"ny":19,"refTime":"2026-05-09T03:00:00:Z","depth":0,"parameterNumber":3,"parameterNumberName":"V-component_of_WINDS"},"data":[0,0,0,4.0974,4.0974,4.097,4.097,4.0985,4.0985,0,0,0,0,0,0,0,0,0,0,0,4.0987,4.0987,4.0974,4.0974,4.097,4.097,4.0985,4.0985,0,0,0,0,0,0,0,0,0,0,0,4.0987,4.0987,4.0988,4.0974,4.097,4.097,4.0985,4.0981,0,0,0,0,0,0,0,0,0,0,4.0981,4.1004,4.0987,4.0988,4.0975,4.097,4.097,4.098,4.0981,4.0995,0,4.101,0,4.0998,4.0987,4.0988,0,0,0,4.0966,4.1004,4.0992,4.0988,4.0975,4.0971,4.097,4.0981,4.0982,4.0996,4.101,4.101,4.0998,4.0988,4.0988,4.1095,4.1096,0,0,4.0966,4.0993,4.0992,4.0993,4.0995,4.097,4.097,4.0981,4.0998,4.101,4.101,4.0998,4.0988,4.0988,4.1094,4.1095,0,0,0,4.0973,4.0993,4.0981,4.0993,4.0991,4.097,4.097,4.0997,4.0991,4.101,4.0999,4.0988,4.0988,4.1093,4.1095,4.1165,0,0,0,4.0972,4.0997,4.0981,4.0997,4.0991,4.0994,4.0987,4.099,4.0991,4.0999,4.0988,4.0989,4.1092,4.1094,4.1161,4.1194,0,0,0,4.0983,4.0998,4.1001,4.0999,4.0998,4.0993,4.0987,4.099,4.0984,4.0988,4.0989,4.1091,4.1094,4.1157,4.1188,4.123,0,0,0,4.1003,4.1064,4.1003,4.1066,4.0998,4.1036,4.0987,4.1014,4.1025,4.0988,4.1092,4.1094,4.1156,4.1184,4.1227,4.1272,4.1293,0,0,4.1094,4.1076,4.1111,4.1056,4.1112,4.1035,4.1101,4.1086,4.1063,4.1086,4.1088,4.1162,4.1187,4.123,4.1399,4.1416,0,0,0,4.1149,4.1175,4.1184,4.1195,4.1185,4.118,4.1152,4.1147,4.1165,4.108,4.1187,4.1202,4.1226,4.1246,4.126,4.1279,4.1105,4.1104,4.1104,4.1317,4.1283,4.134,4.1305,4.1317,4.1288,4.1295,4.1282,4.1245,4.1271,4.1278,4.1385,4.1409,4.142,4.144,4.1298,4.1298,4.1298,4.1298,4.1449,4.1481,4.1429,4.1465,4.1429,4.1459,4.1433,4.1405,4.1428,4.1377,4.1396,4.1343,4.144,4.1455,4.1303,4.1303,4.1302,4.1301,4.1301,4.1557,4.1566,4.1558,4.1571,4.1585,4.1548,4.1572,4.1538,4.1506,4.1525,4.1529,4.1528,4.1523,4.1529,4.153,4.153,4.153,4.1531,4.1531,4.1672,4.166,4.1685,4.1679,4.1682,4.1682,4.1652,4.1655,4.1648,4.1622,4.1622,4.1582,4.1455,4.1424,4.1537,4.1536,4.1535,4.1534,4.1534,4.182,4.1781,4.1819,4.1822,4.1813,4.1829,4.1785,4.1792,4.1789,4.1803,4.1758,4.1669,4.1648,4.1636,4.1611,4.1765,4.1765,4.1765,4.1765,4.1912,4.1897,4.1928,4.1936,4.1938,4.1902,4.1947,4.1925,4.1896,4.1892,4.1865,4.1828,4.1817,4.1802,4.1787,4.1763,4.1952,4.1952,4.1952,4.2002,4.1985,4.203,4.2001,4.1991,4.1983,4.2024,4.2035,4.1994,4.1959,4.1889,4.1881,4.182,4.1802,4.1767,4.1744,4.1699,0,0]}]]